Location: Anuling
(14.1239°N, 120.8922°E)
Time: 04:53:54
(UTC+00:00)

ARIANE 6 FM1 Upper Stage - Pass Details

Date: 14 January 2026
Orbit: 522 x 609 km, 62.0° (Epoch: 7 February)

Event Time Altitude Azimuth Distance (km) Brightness Sun altitude
Rises 11:00:57 0° 179° (S) 2,779 6.4 -17.8°
Reaches altitude 10° 11:03:39 10° 163° (SSE) 1,864 5.3 -18.4°
Enters shadow 11:05:41 19° 136° (SE) 1,387 4.4 -18.9°
